Regional Weather Roundup
Issued by NWS Goodland, KS

Home | Current Version | Previous Version | Text Only | Print | Product List | Glossary Off
Versions: 1 2 3 4 5 6 7 8 9 10 11 12 13 14 15 16 17 18 19 20 21 22 23 24 25 26 27 28 29 30 31 32 33 34 35 36 37 38 39 40 41 42 43 44 45 46 47 48 49 50

000
ASUS43 KGLD 250759
RWRGLD

GOODLAND FORECAST AREA HOURLY WEATHER ROUNDUP
NATIONAL WEATHER SERVICE GOODLAND KS
200 AM MDT SAT MAR 25 2017

...OFFICIAL OBSERVATIONS...

CITY           SKY/WX    TMP DP  RH WIND       PRES   REMARKS
GOODLAND KS    CLEAR     34  32  92 NW9       30.05F
HILL CITY KS   CLOUDY    43  40  89 N14       30.03F
IMPERIAL NEB   CLEAR     34  29  82 N9        30.06F
MCCOOK NEB     MOCLDY    40  38  93 NW10      30.06R
AKRON CO       CLEAR     33  29  85 W8        30.08F
BURLINGTON CO  CLEAR     33  31  92 NW10      30.08S
LIMON CO       CLOUDY    29  27  92 N5        30.10F
$$

...UNOFFICIAL OBSERVATIONS...

CITY           SKY/WX    TMP DP  RH WIND       PRES   REMARKS
LENORA KS        N/A     41  32  70 N5G12       N/A
NORTON KS      CLOUDY    39  36  87 N9        30.03S
SHARON SPRINGS   N/A     33  31  94 NW9         N/A
TRENTON NEB      N/A     34  32  92 N5          N/A
YUMA CO        FAIR      30  30 100 W8        30.08F
$$




USA.gov is the U.S. government's official web portal to all federal, state and local government web resources and services.